This is the latest recevied weather packets stored in our database for station/object KK4WXG. If no packets are shown the sender has not sent any weather packets the latest 10 day(s).
| Time | Temp. | Humidity | Pressure | Rain* | Wind** | Luminosity | Snow |
|---|---|---|---|---|---|---|---|
| 1778105370 | 21.11° C | 76% | 1008.1 hPa | 0 mm | - | 232 W/m² | - |
| 1778105065 | 21.67° C | 76% | 1007.6 hPa | 0 mm | - | 302 W/m² | - |
| 1778104762 | 20.56° C | 79% | 1007.7 hPa | 0 mm | - | 298 W/m² | - |
| 1778104458 | 20.56° C | 77% | 1007.8 hPa | 0 mm | - | 209 W/m² | - |
| 1778104154 | 20.56° C | 79% | 1007.8 hPa | 0 mm | - | 241 W/m² | - |
| 1778103851 | 20.56° C | 78% | 1007.6 hPa | 0 mm | - | 138 W/m² | - |
| 1778103549 | 20.56° C | 78% | 1008.1 hPa | 0 mm | - | 127 W/m² | - |
| 1778103246 | 20° C | 79% | 1007.9 hPa | 0 mm | - | 106 W/m² | - |
| 1778102944 | 20° C | 80% | 1007.9 hPa | 0 mm | - | 59 W/m² | - |
| 1778102639 | 20° C | 79% | 1007.7 hPa | 0 mm | - | 87 W/m² | - |
| 1778102334 | 20.56° C | 79% | 1007.7 hPa | 0 mm | - | 41 W/m² | - |
| 1778102031 | 20.56° C | 79% | 1007.4 hPa | 0 mm | - | 75 W/m² | - |
| 1778101728 | 20.56° C | 79% | 1007.5 hPa | 0 mm | - | 109 W/m² | - |
| 1778101424 | 20° C | 80% | 1007.2 hPa | 0 mm | - | 163 W/m² | - |
| 1778101122 | 20° C | 81% | 1007.4 hPa | 0 mm | - | 121 W/m² | - |
| 1778100817 | 20° C | 80% | 1007.7 hPa | 0 mm | - | 79 W/m² | - |
| 1778100514 | 20° C | 80% | 1007.6 hPa | 0 mm | - | 42 W/m² | - |
| 1778100212 | 20° C | 81% | 1007.3 hPa | 0 mm | - | 41 W/m² | - |
| 1778099909 | 20° C | 81% | 1007.2 hPa | 0 mm | - | 66 W/m² | - |
| 1778099606 | 20° C | 80% | 1007.2 hPa | 0 mm | - | 42 W/m² | - |
| 1778099303 | 19.44° C | 81% | 1007.4 hPa | 0 mm | - | 64 W/m² | - |
| 1778099000 | 19.44° C | 81% | 1007.2 hPa | 0 mm | - | 90 W/m² | - |
| 1778098697 | 19.44° C | 80% | 1007.4 hPa | 0 mm | - | 102 W/m² | - |
| 1778098394 | 20° C | 79% | 1007.5 hPa | 0 mm | - | 48 W/m² | - |
| 1778098091 | 20° C | 79% | 1007.2 hPa | 0 mm | - | 82 W/m² | - |
* Rain latest hour (hover to see other rain measurements)
** Current wind speed in m/s (hover to see current wind gust speed)